Regional Weather Roundup
Issued by NWS

Home | Current Version | Previous Version | Graphics & Text | Print | Product List | Glossary On
Versions: 1 2 3 4 5 6 7 8 9 10 11 12 13 14 15 16 17 18 19 20 21 22 23 24 25 26 27 28 29 30 31 32 33 34 35 36 37 38 39 40 41 42 43 44 45 46 47 48 49 50
000
ASUS43 KLOT 241900
RWRIL

ILLINOIS REGIONAL WEATHER ROUNDUP
NATIONAL WEATHER SERVICE CHICAGO/ROMEOVILLE IL
200 PM CDT THU APR 24 2014

NOTE: "FAIR" INDICATES FEW OR NO CLOUDS BELOW 12,000 FEET WITH NO
SIGNIFICANT WEATHER AND/OR OBSTRUCTIONS TO VISIBILITY.

* THESE STATIONS ARE NOT UNDER NWS QUALITY CONTROL. THEY ALSO MAY NOT
  REPORT WEATHER SUCH AS PRECIPITATION OR FOG.

ILZ001-002-007-009-015-016-024-242000-
NORTHWEST ILLINOIS

CITY           SKY/WX    TMP DP  RH WIND       PRES   REMARKS
MOLINE         CLOUDY    59  46  62 S13G20    29.74F
STERLING*      CLOUDY    54  45  71 CALM      29.79S
$$

ILZ003-004-008-010-011-017-018-242000-
NORTH CENTRAL ILLINOIS

CITY           SKY/WX    TMP DP  RH WIND       PRES   REMARKS
ROCKFORD       LGT RAIN  58  41  53 S23G30    29.81S
$$

ILZ005-006-012>014-019>023-242000-
NORTHEAST ILLINOIS

CITY           SKY/WX    TMP DP  RH WIND       PRES   REMARKS
CHICAGO-OHARE  CLOUDY    61  32  33 S23       29.84F
CHICAGO-MIDWAY CLOUDY    61  33  35 SE18G31   29.86F
AURORA         CLOUDY    62  38  40 SE24G33   29.82F
WAUKEGAN       PTSUNNY   53  33  46 SE14      29.85F
DUPAGE AIRPORT CLOUDY    60  35  39 SE23      29.82F
WHEELING       PTSUNNY   61  33  35 S17G28    29.85F
NORTHERLY ISL    N/A     53  40  61 SE15        N/A
$$

LMZ740>746-242000-
SOUTHERN LAKE MICHIGAN

STATION/POSITION SKY/WX   TEMP    WIND        PRES    VSBY  WAVE
                          AIR SEA DIR/SP/G                  HT/PER
                          (F)     (DEG/KT/KT) (MB)    (MI)  (FT/S)
WAUKEGAN HARBOR            44     120/ 19/ 24 1012.2F
HARRISON CRIB              53     150/ 22/ 26   N/A
BURNHAM HARBOR             53     120/ 12/ 15   N/A
CALUMET HARBOR             59     140/ 14/ 19 1012.4F
MICHIGAN CITY              58     120/ 15/ 24   N/A
$$

ILZ025>027-034>036-040-047-049-050-058-095>099-242000-
WEST-CENTRAL ILLINOIS

CITY           SKY/WX    TMP DP  RH WIND       PRES   REMARKS
QUINCY         LGT RAIN  59  50  72 SW3       29.73F
$$

ILZ028>032-037-038-041>044-048-051>054-059>061-242000-
CENTRAL ILLINOIS

CITY           SKY/WX    TMP DP  RH WIND       PRES   REMARKS
DECATUR        PTSUNNY   71  40  32 SE23G31   29.80F
PEORIA         CLOUDY    71  39  31 S18G25    29.76F
SPRINGFIELD    PTSUNNY   75  40  28 S18G31    29.75F
TAYLORVILLE    NOT AVBL
$$

ILZ033-039-045-046-055>057-062-063-242000-
EAST-CENTRAL ILLINOIS

CITY           SKY/WX    TMP DP  RH WIND       PRES   REMARKS
CHAMPAIGN      PTSUNNY   71  35  26 SE20G29   29.83F
MATTOON        PTSUNNY   68  39  34 SE18G25   29.83F
$$

ILZ079-100>102-242000-
SOUTHWEST ILLINOIS

CITY           SKY/WX    TMP DP  RH WIND       PRES   REMARKS
ALTON          PTSUNNY   73  45  35 S21       29.76F
BELLEVILLE     PTSUNNY   76  47  35 S16G23    29.75F
CAHOKIA*       PTSUNNY   76  46  34 SE14G21   29.73F
$$

ILZ064>066-069>071-074>076-080>082-084>086-088>090-092>094-242000-
SOUTH-CENTRAL ILLINOIS

CITY           SKY/WX    TMP DP  RH WIND       PRES   REMARKS
CARBONDALE     MOSUNNY   77  45  32 S20G25    29.81F
MARION         MOSUNNY   77  43  29 SW17      29.82F
MT. VERNON     PTSUNNY  N/A N/A N/A S12G21    29.83F
$$

ILZ067-068-072-073-078-083-087-091-242000-
SOUTHEAST ILLINOIS

CITY           SKY/WX    TMP DP  RH WIND       PRES   REMARKS
ROBINSON*      PTSUNNY   73  42  32 S13       29.88F
$$

ABBREVIATIONS USED IN REMARKS
   TC - TEMPERATURE IN CELSIUS
  WCI - WIND CHILL INDEX
   HX - HEAT INDEX
  VSB - VISIBILITY
$$




USA.gov is the U.S. government's official web portal to all federal, state and local government web resources and services.